Date String (YYYY-MM-DD hh:mm:ss) UTC,Instrument flags,Ambient pressure (hPa),Sample flow (lpm),Bypass flow (lpm),Sample temperature (°C),Ambient temperature (°C),ASC tube jacket temperature (°C),LED temperature (°C),Box temperature (°C),Sample RH (%),Span deviation,Mass concentration (μg/m³),Mass concentration (μg/m³),Mass concentration (μg/m³)
DateTimeUTC,F1_M11,P_M11,Q1_M11,Q2_M11,T1_M11,T2_M11,T3_M11,T4_M11,T5_M11,U1_M11,ZSPAN_M11,X0_M11,X2_M11,X1_M11
2022-11-22 03:00:00,,0828.5,5.00,0.00,25.2,23.5,00.0,34.3,26.9,08.4,0002.5,0012.68,0006.32,0005.68
2022-11-22 03:01:00,,0828.4,5.00,0.00,25.2,23.5,00.0,34.3,27.0,08.1,0003.3,0013.01,0006.32,0005.67
2022-11-22 03:02:00,,0828.4,5.00,0.00,25.2,23.5,00.0,34.3,27.0,08.1,0000.9,0014.08,0006.43,0005.75
2022-11-22 03:03:00,,0828.4,5.00,0.00,25.2,23.5,00.0,34.3,26.8,08.1,0005.2,0014.37,0006.54,0005.85
2022-11-22 03:04:00,,0828.4,5.01,0.00,25.2,23.5,00.0,34.3,26.8,08.2,0005.3,0014.03,0006.52,0005.87
2022-11-22 03:05:00,,0828.4,5.01,0.00,25.2,23.5,00.0,34.2,26.8,08.2,0005.8,0013.43,0006.51,0005.89
2022-11-22 03:06:00,,0828.4,5.00,0.00,25.1,23.5,00.0,34.2,26.8,08.2,0006.0,0013.45,0006.56,0005.95
2022-11-22 03:07:00,,0828.4,5.00,0.00,25.1,23.4,00.0,34.2,26.8,08.3,0006.1,0013.37,0006.59,0006.01
2022-11-22 03:08:00,,0828.4,5.00,0.00,25.1,23.4,00.0,34.2,26.8,08.3,0006.2,0014.23,0006.66,0006.08
2022-11-22 03:09:00,,0828.4,5.00,0.00,25.1,23.4,00.0,34.2,26.8,08.3,0006.3,0014.56,0006.72,0006.14
2022-11-22 03:10:00,,0828.4,5.00,0.00,25.1,23.3,00.0,34.2,26.7,08.4,0006.3,0014.98,0006.72,0006.16
2022-11-22 03:11:00,,0828.4,4.99,0.00,25.1,23.3,00.0,34.2,26.7,08.3,0006.2,0014.97,0006.73,0006.15
2022-11-22 03:12:00,,0828.4,4.99,0.00,25.0,23.3,00.0,34.1,26.6,08.2,0005.8,0015.05,0006.62,0006.06
2022-11-22 03:13:00,,0828.4,4.99,0.00,25.0,23.2,00.0,34.1,26.7,08.3,0005.4,0014.42,0006.40,0005.89
2022-11-22 03:14:00,,0828.3,5.00,0.00,25.0,23.2,00.0,34.1,26.7,08.3,0004.7,0013.97,0006.19,0005.70
2022-11-22 03:15:00,,0828.3,5.01,0.00,25.0,23.2,00.0,34.1,26.7,08.1,0003.8,0013.75,0006.05,0005.58
2022-11-22 03:16:00,,0828.2,5.01,0.00,25.0,23.2,00.0,34.0,26.6,07.9,0000.0,0013.60,0005.93,0005.46
2022-11-22 03:17:00,,0828.2,5.01,0.00,24.9,23.2,00.0,34.0,26.6,07.9,0000.0,0013.43,0005.84,0005.38
2022-11-22 03:18:00,,0828.2,5.00,0.00,24.9,23.2,00.0,34.0,26.6,07.9,0000.8,0013.03,0005.85,0005.37
2022-11-22 03:19:00,,0828.2,4.99,0.00,24.9,23.2,00.0,34.0,26.6,08.0,0000.0,0013.36,0005.90,0005.42
2022-11-22 03:20:00,,0828.4,4.99,0.00,24.9,23.2,00.0,34.0,26.6,07.9,0000.0,0014.03,0005.95,0005.46
2022-11-22 03:21:00,,0828.3,5.00,0.00,24.9,23.2,00.0,34.0,26.5,07.9,0000.0,0014.01,0006.07,0005.53
2022-11-22 03:22:00,,0828.3,5.00,0.00,24.8,23.1,00.0,33.9,26.5,08.0,0000.0,0014.04,0006.10,0005.55
2022-11-22 03:23:00,,0828.3,5.01,0.00,24.8,23.1,00.0,33.9,26.5,08.1,0000.0,0013.34,0006.04,0005.49
2022-11-22 03:24:00,,0828.2,5.01,0.00,24.8,23.1,00.0,33.9,26.4,07.9,0000.0,0012.63,0005.98,0005.42
2022-11-22 03:25:00,,0828.3,5.00,0.00,24.8,23.1,00.0,33.9,26.4,07.8,0000.0,0012.46,0005.99,0005.42
2022-11-22 03:26:00,,0828.3,5.00,0.00,24.8,23.1,00.0,33.9,26.4,07.8,0000.0,0012.59,0006.03,0005.43
2022-11-22 03:27:00,,0828.3,5.00,0.00,24.7,23.0,00.0,33.8,26.3,07.8,0000.0,0012.55,0005.98,0005.38
2022-11-22 03:28:00,,0828.3,4.99,0.00,24.7,23.0,00.0,33.8,26.3,07.8,0000.0,0012.45,0005.88,0005.29
2022-11-22 03:29:00,,0828.3,5.00,0.00,24.7,23.0,00.0,33.8,26.2,07.8,0000.0,0012.24,0005.78,0005.19
2022-11-22 03:30:00,,0828.3,5.01,0.00,24.7,23.0,00.0,33.8,26.3,07.8,0000.0,0010.91,0005.63,0005.04
2022-11-22 03:31:00,,0828.3,5.00,0.00,24.7,23.0,00.0,33.8,26.4,07.6,0000.0,0010.26,0005.53,0004.90
2022-11-22 03:32:00,,0828.2,5.00,0.00,24.7,23.0,00.0,33.8,26.3,07.7,0000.0,0010.01,0005.33,0004.75
2022-11-22 03:33:00,,0828.3,4.98,0.00,24.6,23.0,00.0,33.8,26.3,08.1,0000.0,0010.10,0005.20,0004.67
2022-11-22 03:34:00,,0828.3,5.01,0.00,24.6,23.0,00.0,33.7,26.3,08.1,0000.0,0010.50,0005.21,0004.68
2022-11-22 03:35:00,,0828.3,5.00,0.00,24.6,23.0,00.0,33.7,26.2,08.1,0000.0,0010.71,0005.27,0004.74
2022-11-22 03:36:00,,0828.3,4.99,0.00,24.6,23.0,00.0,33.7,26.2,08.1,0000.0,0010.78,0005.28,0004.76
2022-11-22 03:37:00,,0828.3,5.01,0.00,24.6,22.9,00.0,33.7,26.2,08.1,0000.0,0011.09,0005.24,0004.76
2022-11-22 03:38:00,,0828.3,5.01,0.00,24.6,22.9,00.0,33.7,26.1,08.0,0000.0,0011.92,0005.29,0004.80
2022-11-22 03:39:00,,0828.3,4.98,0.00,24.5,22.9,00.0,33.7,26.1,08.1,0000.0,0012.26,0005.34,0004.84
2022-11-22 03:40:00,,0828.2,4.99,0.00,24.5,22.9,00.0,33.6,26.1,08.2,0000.0,0012.30,0005.33,0004.83
2022-11-22 03:41:00,,0828.3,5.01,0.00,24.5,22.9,00.0,33.6,26.2,08.1,0000.0,0012.35,0005.34,0004.84
2022-11-22 03:42:00,,0828.3,5.01,0.00,24.5,22.9,00.0,33.6,26.2,08.1,0000.0,0012.48,0005.38,0004.90
2022-11-22 03:43:00,,0828.3,5.00,0.00,24.5,22.8,00.0,33.6,26.1,08.2,0000.0,0013.03,0005.43,0004.95
2022-11-22 03:44:00,,0828.2,5.00,0.00,24.5,22.8,00.0,33.6,26.1,08.1,0000.0,0013.20,0005.49,0005.00
2022-11-22 03:45:00,,0828.2,4.99,0.00,24.5,22.8,00.0,33.6,26.1,08.1,0000.0,0012.67,0005.54,0005.04
2022-11-22 03:46:00,,0828.2,5.00,0.00,24.5,22.8,00.0,33.6,26.1,08.1,0000.0,0013.46,0005.62,0005.10
2022-11-22 03:47:00,,0828.2,5.00,0.00,24.4,22.8,00.0,33.5,26.1,08.2,0000.0,0013.45,0005.69,0005.16
2022-11-22 03:48:00,,0828.2,5.00,0.00,24.4,22.8,00.0,33.5,26.1,08.2,0000.0,0013.16,0005.78,0005.22
2022-11-22 03:49:00,,0828.2,5.00,0.00,24.4,22.8,00.0,33.5,26.0,08.2,0001.2,0012.60,0005.87,0005.28
2022-11-22 03:50:00,,0828.3,5.01,0.00,24.4,22.7,00.0,33.5,26.1,08.3,0004.7,0012.49,0005.94,0005.35
2022-11-22 03:51:00,,0828.2,5.01,0.00,24.4,22.7,00.0,33.5,26.1,08.4,0006.1,0012.45,0005.95,0005.36
2022-11-22 03:52:00,,0828.2,5.00,0.00,24.4,22.7,00.0,33.5,26.1,08.2,0006.1,0012.50,0005.98,0005.40
2022-11-22 03:53:00,,0828.2,5.00,0.00,24.4,22.7,00.0,33.5,26.1,08.2,0005.7,0012.48,0006.04,0005.43
2022-11-22 03:54:00,,0828.2,5.00,0.00,24.4,22.7,00.0,33.5,26.0,08.2,0005.2,0011.76,0006.08,0005.47
2022-11-22 03:55:00,,0828.2,4.99,0.00,24.4,22.7,00.0,33.4,26.0,08.3,0005.0,0011.28,0006.13,0005.50
2022-11-22 03:56:00,,0828.2,5.00,0.00,24.3,22.7,00.0,33.4,26.1,08.3,0004.9,0011.72,0006.14,0005.49
2022-11-22 03:57:00,,0828.3,5.00,0.00,24.3,22.6,00.0,33.4,26.0,08.3,0005.3,0011.37,0006.09,0005.47
2022-11-22 03:58:00,,0828.3,4.99,0.00,24.3,22.6,00.0,33.4,26.0,08.2,0005.0,0011.56,0006.08,0005.46
2022-11-22 03:59:00,,0828.3,5.00,0.00,24.3,22.6,00.0,33.4,25.8,08.2,0004.9,0011.51,0006.05,0005.47
